Location: Kervinic
(48.4279°N, 4.7373°W)
Time: 14:00:16
(UTC+00:00)

ERBS - Pass Details

Date: 09 April 2020
Orbit: 409 x 426 km, 57.0° (Epoch: 02 June)

Event Time Altitude Azimuth Distance (km) Brightness Sun altitude
Rises 21:42:21 0° 300° (WNW) 2,398 7.3 -23.8°
Reaches altitude 10° 21:44:36 10° 289° (WNW) 1,528 5.9 -24.0°
Enters shadow 21:46:34 24° 261° (W) 932 4.3 -24.2°
